Regional Weather Roundup
Issued by NWS

Home | Current Version | Previous Version | Graphics & Text | Print | Product List | Glossary On
Versions: 1 2 3 4 5 6 7 8 9 10 11 12 13 14 15 16 17 18 19 20 21 22 23 24 25 26 27 28 29 30 31 32 33 34 35 36 37 38 39 40 41 42 43 44 45 46 47 48 49 50
000
ASUS43 KTOP 280608
RWRKS

WEATHER ROUNDUP FOR KANSAS
NATIONAL WEATHER SERVICE GOODLAND KS
100 AM CDT TUE JUL 28 2015

NOTE:  "FAIR" INDICATES FEW OR NO CLOUDS BELOW 12,000 FEET WITH NO
SIGNIFICANT WEATHER AND/OR OBSTRUCTIONS TO VISIBILITY.

KSZ001>006-013>018-027>032-041>047-280700-
NORTHWEST KANSAS

CITY           SKY/WX    TMP DP  RH WIND       PRES   REMARKS
GOODLAND       CLEAR     79  64  60 S20G26    29.81S
6HR MIN TEMP:  78; 6HR MAX TEMP:  92;

HAYS           CLEAR     82  66  57 S22G28    29.81S
HILL CITY      CLEAR     82  69  64 S16G24    29.78F
6HR MIN TEMP:  82; 6HR MAX TEMP:  94;

RUSSELL        CLEAR     82  70  66 S22G30    29.80S
6HR MIN TEMP:  82; 6HR MAX TEMP:  92;

$$

KSZ061>065-074>080-084>089-280700-
SOUTHWEST KANSAS

CITY           SKY/WX    TMP DP  RH WIND       PRES   REMARKS
DODGE CITY     CLEAR     79  67  66 S15       29.88R
6HR MIN TEMP:  79; 6HR MAX TEMP:  93;

ELKHART          N/A     78  61  55 S13         N/A
GARDEN CITY    CLEAR     80  65  59 S16G24    29.86R
6HR MIN TEMP:  80; 6HR MAX TEMP:  92;

GREAT BEND     CLEAR     82  66  57 S21       29.84S
LIBERAL        CLEAR     82  64  54 S17G24    29.90R
PRATT          CLEAR     81  63  54 S18G24    29.89S
$$

KSZ066>073-081>083-090>101-280700-
SOUTHEAST KANSAS

CITY           SKY/WX    TMP DP  RH WIND       PRES   REMARKS
CHANUTE        CLEAR     80  75  84 S7        29.91S
6HR MIN TEMP:  80; 6HR MAX TEMP:  91;

COFFEYVILLE    CLEAR     81  77  88 S5        29.90S
6HR MIN TEMP:  81; 6HR MAX TEMP:  92;

HUTCHINSON     CLEAR     84  67  56 S14       29.88R
6HR MIN TEMP:  84; 6HR MAX TEMP:  97;

MEDICINE LODGE   N/A     82  66  58 S8        29.87S
NEWTON         CLEAR     81  66  61 S10       29.91S
PARSONS        CLEAR     81  76  84 CALM      29.92S
6HR MIN TEMP:  81; 6HR MAX TEMP:  91;

WICHITA INTL   CLEAR     83  69  62 S13       29.88S
6HR MIN TEMP:  83; 6HR MAX TEMP:  94;

WICHITA JABRA  CLEAR     81  72  74 S13       29.88F
6HR MIN TEMP:  81; 6HR MAX TEMP:  93;

WICHITA MCCONL CLEAR     83  70  65 S14       29.89S
WINFIELD       CLEAR     82  73  74 S12       29.90S
6HR MIN TEMP:  81; 6HR MAX TEMP:  92;

$$

KSZ007>012-019>026-033>040-048>060-102>105-280700-
NORTHEAST KANSAS

CITY           SKY/WX    TMP DP  RH WIND       PRES   REMARKS
CONCORDIA      CLEAR     81  69  67 S15       29.81F
6HR MIN TEMP:  81; 6HR MAX TEMP:  91;

EMPORIA        CLEAR     80  73  79 S12       29.88S
6HR MIN TEMP:  80; 6HR MAX TEMP:  93;

LAWRENCE       CLEAR     77  73  87 SE7       29.88F
6HR MIN TEMP:  77; 6HR MAX TEMP:  92;

MANHATTAN      CLEAR     82  73  74 S8        29.84F
6HR MIN TEMP:  80; 6HR MAX TEMP:  93;

MARYSVILLE     CLEAR     81  72  74 S9        29.84F
OLATHE IND     CLEAR     79  74  84 S7        29.91S
6HR MIN TEMP:  79; 6HR MAX TEMP:  92;

OLATHE EXE     CLEAR     79  73  82 S7        29.91R
6HR MIN TEMP:  79; 6HR MAX TEMP:  89;

SALINA         CLEAR     85  67  54 S15G23    29.82F
6HR MIN TEMP:  84; 6HR MAX TEMP:  95;

TOPEKA BILLARD CLEAR     83  73  72 S9        29.87S
6HR MIN TEMP:  83; 6HR MAX TEMP:  93;

TOPEKA FORBES  CLEAR     82  72  71 S8        29.88S
6HR MIN TEMP:  82; 6HR MAX TEMP:  94;

$$


USA.gov is the U.S. government's official web portal to all federal, state and local government web resources and services.